DW9686 Weather Reports


time (UTC)temp
C
wind
direction
speed
KPH
gust
KPH
rain 1hr
cm
rain 24hr
cm
rain mn
cm
humidity
%
barometer
mb
20260507110042 12 288 6.4 12.9 0.00 0.00 0.00 67 1014.3
20260507104536 13 302 8.0 12.9 0.00 0.00 0.00 63 1014.3
20260507103043 13 309 6.4 14.5 0.00 0.00 0.00 63 1014.3
20260507101538 14 303 8.0 19.3 0.00 0.00 0.00 62 1014.3
20260507100037 14 298 6.4 16.1 0.00 0.00 0.00 61 1014.1
20260507094536 13 284 8.0 14.5 0.00 0.00 0.00 64 1014.2
20260507093032 13 257 0.0 6.4 0.00 0.00 0.00 64 1014.5
20260507091533 13 257 1.6 12.9 0.00 0.00 0.00 66 1014.0
20260507090035 14 254 6.4 17.7 0.00 0.00 0.00 62 1014.0
20260507084539 13 286 6.4 11.3 0.00 0.00 0.00 64 1013.9
20260507083033 15 306 3.2 16.1 0.00 0.00 0.00 60 1014.0
20260507081537 15 287 12.9 25.7 0.00 0.00 0.00 61 1013.8
20260507080035 14 259 11.3 16.1 0.00 0.00 0.00 63 1013.6
20260507074530 15 279 9.7 17.7 0.00 0.00 0.00 60 1013.8
20260507073031 15 294 11.3 17.7 0.00 0.00 0.00 59 1013.5
20260507071534 16 269 11.3 19.3 0.00 0.00 0.00 57 1013.5
20260507070042 16 270 8.0 14.5 0.00 0.00 0.00 57 1013.6
20260507064535 16 279 4.8 17.7 0.00 0.00 0.00 54 1013.6
20260507063036 17 250 14.5 25.7 0.00 0.00 0.00 54 1012.9
20260507061532 16 290 12.9 17.7 0.00 0.00 0.00 56 1012.9
20260507060032 17 306 11.3 19.3 0.00 0.00 0.00 54 1012.7
20260507054530 17 306 12.9 20.9 0.00 0.00 0.00 54 1012.8
20260507053032 18 290 17.7 30.6 0.00 0.00 0.00 50 1012.6
20260507051536 20 299 22.5 33.8 0.00 0.00 0.00 45 1012.4
20260507050033 19 281 17.7 24.1 0.00 0.00 0.00 47 1012.6
20260507044537 20 284 12.9 25.7 0.00 0.00 0.00 47 1012.5
20260507043031 20 293 16.1 25.7 0.00 0.00 0.00 46 1012.4
20260507041533 20 279 14.5 25.7 0.00 0.00 0.00 44 1012.4
20260507040042 20 290 17.7 27.4 0.00 0.00 0.00 44 1012.1
20260507034541 20 279 17.7 27.4 0.00 0.00 0.00 43 1012.0
20260507033043 20 280 20.9 30.6 0.00 0.00 0.00 45 1011.5
20260507031550 20 273 16.1 27.4 0.00 0.00 0.00 45 1011.4
20260507030033 21 285 16.1 24.1 0.00 0.00 0.00 45 1011.3
20260507024534 21 276 17.7 27.4 0.00 0.00 0.00 44 1011.5
20260507023035 21 294 14.5 24.1 0.00 0.00 0.00 42 1011.3
20260507021530 22 304 16.1 25.7 0.00 0.00 0.00 43 1011.2
20260507020030 23 306 19.3 27.4 0.00 0.00 0.00 39 1011.1
20260507014541 23 297 14.5 25.7 0.00 0.00 0.00 42 1011.1
20260507013039 24 304 16.1 27.4 0.00 0.00 0.00 40 1011.0
20260507011536 23 302 8.0 17.7 0.00 0.00 0.00 41 1011.1
20260507010039 25 299 11.3 22.5 0.00 0.00 0.00 39 1011.3
20260507004534 25 290 12.9 22.5 0.00 0.00 0.00 42 1010.9
20260507003035 24 221 4.8 8.0 0.00 0.00 0.00 64 1011.0
20260507001536 24 217 9.7 12.9 0.00 0.00 0.00 63 1010.6
20260507000034 24 223 6.4 16.1 0.00 0.00 0.00 61 1010.3
20260506234530 25 209 9.7 19.3 0.00 0.00 0.00 59 1010.3
20260506233031 25 208 12.9 22.5 0.00 0.00 0.00 54 1010.2
20260506231535 25 207 14.5 24.1 0.00 0.00 0.00 51 1010.3
20260506230033 26 206 16.1 27.4 0.00 0.00 0.00 50 1010.4
20260506224534 26 210 17.7 25.7 0.00 0.00 0.00 47 1010.7
20260506223031 25 232 16.1 25.7 0.00 0.00 0.00 49 1010.9
20260506221534 25 194 16.1 24.1 0.00 0.00 0.00 51 1011.2
20260506220032 25 205 16.1 27.4 0.00 0.00 0.00 55 1011.4
20260506214531 25 205 17.7 30.6 0.00 0.00 0.00 53 1011.3
20260506213037 25 215 17.7 33.8 0.00 0.00 0.00 54 1011.5
20260506211538 24 199 17.7 30.6 0.00 0.00 0.00 53 1011.7
20260506210034 24 213 17.7 33.8 0.00 0.00 0.00 56 1011.8
20260506204536 25 202 12.9 24.1 0.00 0.00 0.00 60 1011.8
20260506203038 25 220 14.5 24.1 0.00 0.00 0.00 53 1011.9
20260506201538 25 198 16.1 27.4 0.00 0.00 0.00 52 1012.0
20260506200038 25 217 14.5 24.1 0.00 0.00 0.00 54 1012.2
20260506194530 24 192 14.5 24.1 0.00 0.00 0.00 57 1012.5
20260506193031 23 219 12.9 22.5 0.00 0.00 0.00 59 1012.6
20260506191530 23 229 14.5 22.5 0.00 0.00 0.00 58 1012.7
20260506190038 23 214 11.3 24.1 0.00 0.00 0.00 57 1012.8
20260506184536 23 213 12.9 24.1 0.00 0.00 0.00 60 1012.9
20260506183032 22 209 14.5 24.1 0.00 0.00 0.00 60 1012.9
20260506181530 22 223 11.3 19.3 0.00 0.00 0.00 60 1013.0
20260506180032 22 193 11.3 22.5 0.00 0.00 0.00 59 1013.1
20260506174531 21 216 12.9 22.5 0.00 0.00 0.00 61 1013.2
20260506173045 21 198 11.3 22.5 0.00 0.00 0.00 64 1013.2
20260506171530 21 203 12.9 22.5 0.00 0.00 0.00 64 1013.4
20260506170031 20 206 11.3 19.3 0.00 0.00 0.00 66 1013.5
20260506164534 20 202 12.9 17.7 0.00 0.00 0.00 65 1013.6
20260506163037 20 202 12.9 19.3 0.00 0.00 0.00 67 1013.5
20260506161531 19 222 9.7 14.5 0.00 0.00 0.00 68 1013.6
20260506160032 18 191 8.0 14.5 0.00 0.00 0.00 71 1013.6
20260506154534 18 184 9.7 17.7 0.00 0.00 0.00 72 1013.4
20260506153030 17 116 6.4 12.9 0.00 0.00 0.00 77 1013.5
20260506151536 16 101 4.8 11.3 0.00 0.00 0.00 79 1013.3
20260506150030 16 94 3.2 9.7 0.00 0.00 0.00 80 1013.4
20260506144538 15 85 4.8 9.7 0.00 0.00 0.00 81 1013.3
20260506143033 15 85 3.2 9.7 0.00 0.00 0.00 80 1013.4
20260506141532 14 0 0.0 6.4 0.00 0.00 0.00 80 1013.2
20260506140033 14 85 1.6 4.8 0.00 0.00 0.00 80 1013.1
20260506134531 14 85 0.0 4.8 0.00 0.00 0.00 81 1012.9
20260506133032 13 0 0.0 0.0 0.00 0.00 0.00 81 1012.7
20260506131541 13 0 0.0 0.0 0.00 0.00 0.00 82 1012.7
20260506130037 12 0 0.0 0.0 0.00 0.00 0.00 82 1012.5
20260506124530 12 0 0.0 0.0 0.00 0.00 0.00 82 1012.4
20260506123030 12 0 0.0 0.0 0.00 0.00 0.00 80 1012.1
20260506121533 12 0 0.0 0.0 0.00 0.00 0.00 79 1012.0
20260506120034 13 0 0.0 0.0 0.00 0.00 0.00 77 1011.8
20260506114535 13 0 0.0 0.0 0.00 0.00 0.00 77 1011.6
20260506113030 13 0 0.0 0.0 0.00 0.00 0.00 76 1011.6
20260506111529 13 0 0.0 0.0 0.00 0.00 0.00 74 1011.4